EW7554 Weather Reports


time (UTC)temp
C
wind
direction
speed
KPH
gust
KPH
rain 1hr
cm
rain 24hr
cm
rain mn
cm
humidity
%
barometer
mb
20260901081501 20 216 0.0 1.6 0.00 0.00 0.00 87 1012.5
20260901074603 20 216 0.0 1.6 0.00 0.00 0.00 87 1012.6
20260901073059 20 216 1.6 4.8 0.00 0.00 0.00 86 1012.6
20260901071558 20 241 0.0 3.2 0.00 0.00 0.00 85 1012.7
20260901064555 20 241 0.0 3.2 0.00 0.00 0.00 84 1013.0
20260901063055 20 241 1.6 4.8 0.00 0.00 0.00 84 1013.1
20260901061552 20 242 1.6 4.8 0.00 0.00 0.00 83 1013.2
20260901060050 21 242 1.6 6.4 0.00 0.00 0.00 82 1013.0
20260901054549 21 250 0.0 4.8 0.00 0.00 0.00 81 1012.9
20260901053048 21 251 1.6 3.2 0.00 0.00 0.00 81 1012.7
20260901051546 21 251 0.0 1.6 0.00 0.00 0.00 80 1012.6
20260901050041 22 251 0.0 3.2 0.00 0.00 0.00 79 1012.4
20260901044552 22 251 0.0 3.2 0.00 0.00 0.00 78 1012.3
20260901043039 22 251 1.6 4.8 0.00 0.00 0.00 78 1012.0
20260901041538 22 250 0.0 3.2 0.00 0.00 0.00 78 1012.0
20260901040038 22 250 1.6 3.2 0.00 0.00 0.00 77 1012.3
20260901034536 22 250 0.0 3.2 0.00 0.00 0.00 76 1012.3
20260901033035 23 250 0.0 1.6 0.00 0.00 0.00 75 1012.4
20260901031533 23 250 1.6 4.8 0.00 0.00 0.00 73 1012.2
20260901030042 23 254 0.0 3.2 0.00 0.00 0.00 72 1012.2
20260901024532 24 251 1.6 4.8 0.00 0.00 0.00 71 1012.0
20260901023032 24 249 1.6 4.8 0.00 0.00 0.00 69 1012.0
20260901021529 25 252 0.0 4.8 0.00 0.00 0.00 68 1011.8
20260901020027 25 269 1.6 3.2 0.00 0.00 0.00 68 1011.9
20260901014524 25 269 0.0 1.6 0.00 0.00 0.00 66 1011.6
20260901013022 26 269 0.0 3.2 0.00 0.00 0.00 65 1011.5
20260901011521 26 269 1.6 4.8 0.00 0.00 0.00 63 1011.3
20260901010022 27 270 0.0 4.8 0.00 0.00 0.00 61 1011.3
20260901004530 27 284 0.0 3.2 0.00 0.00 0.00 57 1011.2
20260901003022 28 290 0.0 8.0 0.00 0.00 0.00 54 1011.1
20260901001524 29 288 3.2 8.0 0.00 0.00 0.00 52 1011.1
20260901000017 29 298 6.4 12.9 0.00 0.00 0.00 50 1011.0
20260831234516 30 280 4.8 12.9 0.00 0.00 0.00 50 1011.1
20260831233014 30 277 1.6 12.9 0.00 0.00 0.00 50 1011.0
20260831231513 31 262 4.8 14.5 0.00 0.00 0.00 47 1011.0
20260831230015 31 267 6.4 17.7 0.00 0.00 0.00 48 1010.9
20260831224513 32 308 6.4 12.9 0.00 0.00 0.00 46 1010.8
20260831223010 32 282 6.4 14.5 0.00 0.00 0.00 47 1010.8
20260831221518 32 265 4.8 11.3 0.00 0.00 0.00 45 1010.7
20260831220008 32 275 6.4 14.5 0.00 0.00 0.00 44 1010.5
20260831214522 32 273 3.2 11.3 0.00 0.00 0.00 45 1010.4
20260831213007 33 284 6.4 14.5 0.00 0.00 0.00 45 1010.3
20260831211505 33 191 1.6 14.5 0.00 0.00 0.00 42 1010.3
20260831210006 33 265 3.2 16.1 0.00 0.00 0.00 43 1010.3
20260831204506 32 5 4.8 16.1 0.00 0.00 0.00 45 1010.3
20260831203001 33 303 3.2 12.9 0.00 0.00 0.00 42 1010.3
20260831201559 32 290 4.8 17.7 0.00 0.00 0.00 44 1010.4
20260831200058 32 267 6.4 19.3 0.00 0.00 0.00 47 1010.3
20260831194556 32 296 6.4 14.5 0.00 0.00 0.00 48 1010.2
20260831193055 31 278 4.8 14.5 0.00 0.00 0.00 48 1010.1
20260831191553 32 329 3.2 17.7 0.00 0.00 0.00 49 1010.2
20260831190110 31 355 6.4 16.1 0.00 0.00 0.00 46 1010.2
20260831184549 31 305 6.4 16.1 0.00 0.00 0.00 42 1010.0
20260831183057 31 311 6.4 16.1 0.00 0.00 0.00 49 1010.0
20260831181546 30 333 4.8 14.5 0.00 0.00 0.00 53 1010.0
20260831180042 30 340 3.2 12.9 0.00 0.00 0.00 58 1010.2
20260831174539 30 282 4.8 14.5 0.00 0.00 0.00 62 1010.2
20260831173039 29 328 6.4 12.9 0.00 0.00 0.00 64 1010.3
20260831171537 29 267 1.6 12.9 0.00 0.00 0.00 68 1010.4
20260831170033 29 319 3.2 9.7 0.00 0.00 0.00 69 1010.4
20260831164531 28 5 4.8 14.5 0.00 0.00 0.00 69 1010.3
20260831163038 28 298 3.2 12.9 0.00 0.00 0.00 70 1010.1
20260831161526 28 315 3.2 9.7 0.00 0.00 0.00 70 1009.9
20260831160036 28 310 1.6 6.4 0.00 0.00 0.00 73 1009.9
20260831154522 27 312 3.2 14.5 0.00 0.00 0.00 73 1010.0
20260831153020 27 327 6.4 14.5 0.00 0.00 0.00 74 1010.0
20260831151522 27 298 4.8 12.9 0.00 0.00 0.00 75 1009.8
20260831150019 26 286 6.4 12.9 0.00 0.00 0.00 78 1009.6
20260831144519 26 229 4.8 12.9 0.00 0.00 0.00 80 1009.3
20260831143008 25 280 4.8 12.9 0.00 0.00 0.00 81 1009.2
20260831141506 25 291 4.8 9.7 0.00 0.00 0.00 81 1009.0
20260831140002 24 232 3.2 8.0 0.00 0.00 0.00 83 1008.9
20260831134602 23 225 1.6 8.0 0.00 0.00 0.00 85 1008.9
20260831133055 23 273 3.2 11.3 0.00 0.00 0.00 86 1008.5
20260831131548 23 249 3.2 6.4 0.00 0.00 0.00 87 1008.5
20260831130049 22 241 3.2 6.4 0.00 0.00 0.00 89 1008.3
20260831124549 22 198 1.6 8.0 0.00 0.00 0.00 90 1008.0
20260831123040 22 193 4.8 8.0 0.00 0.00 0.00 90 1008.0
20260831121536 22 209 1.6 4.8 0.00 0.00 0.00 90 1007.9
20260831120049 22 209 0.0 4.8 0.00 0.00 0.00 90 1007.8
20260831114531 22 209 0.0 3.2 0.00 0.00 0.00 89 1007.5
20260831113029 22 205 1.6 6.4 0.00 0.00 0.00 89 1007.3
20260831111527 22 193 1.6 6.4 0.00 0.00 0.00 89 1007.2
20260831110028 22 189 3.2 9.7 0.00 0.00 0.00 89 1006.9
20260831104527 22 180 4.8 9.7 0.00 0.00 0.00 89 1006.7
20260831103027 22 241 3.2 9.7 0.00 0.00 0.00 89 1006.9
20260831101525 22 166 1.6 4.8 0.00 0.00 0.00 88 1006.8
20260831100025 22 160 3.2 8.0 0.00 0.00 0.00 88 1006.8
20260831094523 22 175 3.2 6.4 0.00 0.00 0.00 88 1006.9
20260831093023 22 178 4.8 8.0 0.00 0.00 0.00 87 1006.7
20260831091522 22 180 6.4 9.7 0.00 0.00 0.00 87 1006.8
20260831090020 23 182 6.4 12.9 0.00 0.00 0.00 87 1006.7
20260831084523 22 186 4.8 9.7 0.00 0.00 0.00 86 1006.7
20260831083019 23 167 6.4 9.7 0.00 0.00 0.00 86 1006.7
20260831081521 23 164 6.4 11.3 0.00 0.00 0.00 85 1006.6